St. Petersburg Airport, FL

8:52 PM EDT on July 24, 2017 (GMT -0400)
Saint Petersburg-Clearwater International

Weather History for KPIE - March, 2014

Change the Weather History Date:

Friday, March 28, 2014

  Actual Average Record
Temperature  
Mean Temperature 71 °F -  
Max Temperature 78 °F 78 °F 88 °F (1989)
Min Temperature 64 °F 62 °F 43 °F (1955)
Cooling Degree Days 6    
Growing Degree Days 21 (Base 50)    
Moisture  
Dew Point 61 °F    
Average Humidity 72    
Maximum Humidity 90    
Minimum Humidity 58    
Precipitation  
Precipitation 0.10 in - - ()
Sea Level Pressure  
Sea Level Pressure 30.09 in    
Wind  
Wind Speed 10 mph (SE)    
Max Wind Speed 16 mph    
Max Gust Speed 23 mph    
Visibility 10 miles    
Events Rain    
Averages and records for this station are not official NWS values.
T = Trace of Precipitation, MM = Missing Value Source: NWS Daily Summary

Daily Weather History Graph

Daily Weather History Graph

Search for Another Location

Airport or City:

Trip Planner

Search our weather history database for the weather conditions in past years. The results will help you decide how hot, cold, wet, or windy it might be!

Date:

Astronomy

Mar. 28, 2014 Rise Set
Actual Time 7:25 AM EDT 7:46 PM EDT
Civil Twilight 7:02 AM EDT 8:09 PM EDT
Nautical Twilight 6:34 AM EDT 8:37 PM EDT
Astronomical Twilight 6:06 AM EDT 9:05 PM EDT
Moon 5:44 AM EDT (3/28) 5:50 PM EDT (3/28)
Length of Visible Light 13h 07m
Length of Day
12h 20m
Waning Crescent, 6% of the Moon is Illuminated
Mar 28
Waning Crescent
Mar 30
New
Apr 7
First Quarter
Apr 15
Full
Apr 22
Last Quarter

Hourly Weather History & Observations

Time (EDT) Temp. Dew Point Humidity Pressure Visibility Wind Dir Wind Speed Gust Speed Precip Events Conditions
12:53 AM 64.9 °F 55.9 °F 73% 30.19 in 10.0 mi ESE 11.5 mph - N/A   Clear
1:53 AM 64.0 °F 57.0 °F 78% 30.17 in 10.0 mi SE 10.4 mph - N/A   Clear
2:53 AM 64.0 °F 57.0 °F 78% 30.15 in 10.0 mi SE 6.9 mph - N/A   Clear
3:53 AM 64.9 °F 57.9 °F 78% 30.12 in 10.0 mi ESE 10.4 mph - N/A   Clear
4:53 AM 64.9 °F 57.9 °F 78% 30.11 in 10.0 mi ESE 9.2 mph - N/A   Clear
5:53 AM 64.0 °F 59.0 °F 84% 30.12 in 10.0 mi East 5.8 mph - N/A   Clear
6:53 AM 64.0 °F 59.0 °F 84% 30.12 in 10.0 mi East 6.9 mph - N/A   Clear
7:53 AM 64.9 °F 59.0 °F 81% 30.12 in 10.0 mi ESE 10.4 mph - N/A   Clear
8:53 AM 68.0 °F 60.1 °F 76% 30.12 in 10.0 mi SE 12.7 mph - N/A   Clear
9:53 AM 70.0 °F 61.0 °F 73% 30.09 in 10.0 mi SE 16.1 mph - N/A   Clear
10:53 AM 73.0 °F 61.0 °F 66% 30.13 in 10.0 mi SE 16.1 mph 23.0 mph N/A   Clear
11:53 AM 73.9 °F 61.0 °F 64% 30.15 in 10.0 mi ESE 12.7 mph - N/A   Mostly Cloudy
12:53 PM 75.0 °F 62.1 °F 64% 30.12 in 10.0 mi SE 12.7 mph - N/A   Clear
1:53 PM 75.9 °F 61.0 °F 60% 30.11 in 10.0 mi SE 11.5 mph - N/A   Scattered Clouds
2:53 PM 78.1 °F 62.1 °F 58% 30.07 in 10.0 mi SSE 15.0 mph - N/A   Scattered Clouds
3:53 PM 77.0 °F 63.0 °F 62% 30.03 in 10.0 mi SSE 11.5 mph - N/A   Overcast
4:53 PM 75.9 °F 63.0 °F 64% 30.02 in 10.0 mi SE 10.4 mph - N/A   Clear
5:53 PM 75.9 °F 63.0 °F 64% 30.03 in 10.0 mi SE 8.1 mph - N/A   Overcast
6:53 PM 75.0 °F 64.0 °F 69% 30.04 in 10.0 mi SE 4.6 mph - N/A   Mostly Cloudy
7:53 PM 73.0 °F 64.0 °F 73% 30.03 in 10.0 mi South 4.6 mph - N/A   Mostly Cloudy
8:53 PM 73.0 °F 64.0 °F 73% 30.02 in 10.0 mi South 6.9 mph - N/A   Clear
9:53 PM 73.0 °F 64.9 °F 76% 30.04 in 10.0 mi SSE 6.9 mph - N/A   Clear
10:53 PM 73.9 °F 64.9 °F 73% 30.05 in 10.0 mi South 9.2 mph - N/A   Scattered Clouds
11:53 PM 70.0 °F 66.9 °F 90% 30.04 in 8.0 mi ESE 5.8 mph - 0.10 in Rain Light Rain